Flag for Germany Weather past 2 weeks in Landsberg am Lech, Bavaria, Germany

45 °F

Passing clouds.

Feels Like: 43 °F
Forecast: 42 / 65 °F
Wind: 3 mph from Southeast

Location: Landsberg

Current Time: Oct 4, 2015 at 11:29:09 PM

Latest Report: Oct 4, 2015 at 10:20 PM

Visibility: N/A

Pressure: 30.07 "Hg (27.97 "Hg at 593m altitude)

Humidity: 93%

Dew point: 43 °F

Location of Landsberg am LechLocation

Historic Weather in Landsberg am Lech — Graph


Landsberg am Lech temperature yesterday

Maximum temperature yesterday: 66 °F (at 3:20 PM)
Minimum temperature yesterday: 45 °F (at 2:20 AM)
Average temperature yesterday: 54 °F

Past Weeks' High & Low Weather Summary

High66 °F (Oct 3, 3:20 PM)100% (Sep 21, 4:20 AM)30.48 "Hg (Sep 21, 4:20 AM)
Low36 °F (Oct 1, 6:20 AM)44% (Sep 30, 4:20 PM)29.71 "Hg (Sep 22, 5:20 PM)
Average51 °F77%30.17 "Hg
* Reported Sep 19 9:20 PM — Oct 4 9:20 PM, Landsberg am Lech, Weather by CustomWeather, © 2015

Note: Actual official high and low records may vary slightly from our data, if they occured in-between our weather recording intervals... More about our weather records


Landsberg am Lech weather history for previous 24 hours

Time TempWeatherWind HumidityBarometerVisibility
9:20 PM
Sun, Oct 4
46 °FPassing clouds.3 mph93%30.07 "HgN/A
8:20 PM46 °FPassing clouds.5 mph93%30.07 "HgN/A
7:20 PM50 °FPassing clouds.5 mph88%30.07 "HgN/A
6:20 PM54 °FPassing clouds.5 mph72%30.07 "HgN/A
5:20 PM57 °FPassing clouds.7 mph63%30.09 "HgN/A
4:20 PM57 °FPassing clouds.10 mph59%30.09 "HgN/A
3:20 PM55 °FBroken clouds.5 mph72%30.09 "HgN/A
2:20 PM50 °FPartly sunny.7 mph82%30.12 "HgN/A
1:20 PM52 °FLight rain. Broken clouds.12 mph77%30.12 "HgN/A
12:20 PM52 °FOvercast.13 mph77%30.12 "HgN/A
11:20 AM52 °FPartly sunny.17 mph82%30.12 "HgN/A
10:20 AM52 °FLight rain. Broken clouds.20 mph82%30.09 "HgN/A
9:20 AM54 °FLight rain. Partly sunny.12 mph88%30.07 "HgN/A
8:20 AM54 °FLight rain. Partly sunny.13 mph88%30.04 "HgN/A
7:20 AM54 °FLight rain. Passing clouds.6 mph82%30.01 "HgN/A
6:20 AM52 °FLight rain. Passing clouds.6 mph94%30.01 "HgN/A
5:20 AM52 °FLight rain. Overcast.6 mph88%29.98 "HgN/A
4:20 AM50 °FPassing clouds.1 mph94%29.98 "HgN/A
3:20 AM48 °FPassing clouds.3 mph94%29.98 "HgN/A
2:20 AM48 °FPassing clouds.1 mph94%29.98 "HgN/A
1:20 AM46 °FPassing clouds.2 mph93%29.98 "HgN/A
12:20 AM48 °FPassing clouds.3 mph87%30.01 "HgN/A
11:20 PM
Sat, Oct 3
50 °FPassing clouds.2 mph88%30.01 "HgN/A
Weather by CustomWeather, © 2015

See weather overviewHow to use our weather pages